Home > Weather > Oradea > Past weeks

Flag for Romania Past Weather in Oradea, Romania — Yesterday and Last 2 Weeks

Now
73 °F

Sunny.


Feels Like: 74 °F
Forecast: 68 / 80 °F
Wind: 7 mph from East

Location: Oradea Airport

Current Time: Jun 26, 2016 at 7:50:23 AM

Latest Report: Jun 26, 2016 at 7:00 AM


Visibility: 10 mi

Pressure: 29.95 "Hg

Humidity: 78%

Dew Point: 66 °F

Location of OradeaLocation

Past Weather in Oradea — Graph

°F

Oradea Temperature Yesterday

Maximum temperature yesterday: 91 °F (at 4:00 PM)
Minimum temperature yesterday: 70 °F (at 5:00 AM)
Average temperature yesterday: 82 °F

High & Low Weather Summary for the Past Weeks

 TemperatureHumidityPressure
High91 °F (Jun 17, 2:30 PM)100% (Jun 14, 7:00 AM)30.21 "Hg (Jun 14, 7:00 AM)
Low59 °F (Jun 11, 10:30 PM)35% (Jun 17, 8:30 AM)29.47 "Hg (Jun 14, 4:00 AM)
Average73 °F73%29.91 "Hg
* Reported Jun 11 6:00 AM — Jun 26 6:30 AM, Oradea, Weather by CustomWeather, © 2016

Note: Actual official high and low records may vary slightly from our data, if they occured in-between our weather recording intervals... More about our weather records

Advertising

Oradea Weather History for the Previous 24 Hours

Scroll right to see more
 ConditionsComfort  
Time TempWeatherWind HumidityBarometerVisibility
6:30 AM
Sun, Jun 26
73 °FPartly cloudy.6 mph78%29.95 "HgN/A
6:00 AM72 °FPassing clouds.6 mph83%29.95 "HgN/A
5:30 AM73 °FPassing clouds.5 mph78%29.95 "HgN/A
5:00 AM73 °FPassing clouds.6 mph78%29.95 "HgN/A
4:00 AM73 °FMild.6 mph83%29.95 "HgN/A
3:00 AM73 °FPassing clouds.5 mph83%29.95 "HgN/A
2:00 AM73 °FMild.3 mph83%29.95 "HgN/A
1:00 AM77 °FWarm.3 mph74%29.95 "HgN/A
12:00 AM75 °FMild.3 mph74%29.92 "HgN/A
11:00 PM
Sat, Jun 25
79 °FPassing clouds.5 mph65%29.92 "HgN/A
10:30 PM79 °FPartly sunny.7 mph70%29.92 "HgN/A
10:00 PM79 °FWarm.7 mph74%29.92 "HgN/A
9:30 PM82 °FWarm.8 mph66%29.92 "HgN/A
9:00 PM84 °FSunny.5 mph70%29.92 "Hg10 mi
8:30 PM86 °FSunny.3 mph62%29.92 "Hg10 mi
8:00 PM88 °FSunny.3 mph52%29.92 "Hg10 mi
7:30 PM88 °FPassing clouds.5 mph52%29.92 "HgN/A
7:00 PM90 °FSunny.7 mph46%29.92 "Hg10 mi
6:30 PM90 °FPassing clouds.5 mph43%29.92 "HgN/A
6:00 PM91 °FPassing clouds.3 mph41%29.92 "HgN/A
5:30 PM90 °FSunny.6 mph43%29.95 "Hg10 mi
5:00 PM90 °FSunny.3 mph43%29.95 "Hg10 mi
4:30 PM91 °FSunny.1 mph44%29.95 "Hg10 mi
4:00 PM91 °FSunny.2 mph44%29.95 "Hg10 mi
3:30 PM90 °FPassing clouds.6 mph43%29.98 "HgN/A
3:00 PM90 °FSunny.6 mph43%29.98 "Hg10 mi
2:30 PM90 °FSunny.5 mph43%29.98 "Hg10 mi
2:00 PM88 °FPassing clouds.5 mph40%30.01 "HgN/A
1:30 PM88 °FPassing clouds.6 mph43%30.01 "HgN/A
1:00 PM88 °FPassing clouds.6 mph49%30.01 "HgN/A
12:30 PM88 °FPassing clouds.6 mph43%30.01 "HgN/A
12:00 PM86 °FPassing clouds.5 mph49%30.01 "HgN/A
11:30 AM86 °FPassing clouds.5 mph49%30.01 "HgN/A
11:00 AM86 °FPassing clouds.3 mph46%30.01 "HgN/A
10:30 AM82 °FPassing clouds.5 mph55%30.01 "HgN/A
10:00 AM82 °FPassing clouds.5 mph55%30.01 "HgN/A
9:30 AM81 °FPassing clouds.3 mph62%30.01 "HgN/A
9:00 AM77 °FPassing clouds.5 mph69%30.04 "HgN/A
8:30 AM77 °FPassing clouds.3 mph69%30.01 "HgN/A
8:00 AM73 °FPassing clouds.5 mph74%30.01 "HgN/A
7:30 AM72 °FSunny.7 mph73%30.01 "Hg10 mi
7:00 AM72 °FSunny.6 mph78%30.01 "Hg10 mi
Weather by CustomWeather, © 2016

See weather overviewHow to use our weather pages